Weather History for Montpelier, VT

Change the Weather History Date:

Tuesday, March 19, 2013

  Actual Average Record
Temperature  
Mean Temperature 26 °F 30 °F  
Max Temperature 28 °F 40 °F 73 °F (2012)
Min Temperature 24 °F 20 °F -18 °F (1967)
Degree Days  
Heating Degree Days 39 35  
Month to date heating degree days 649 731  
Since 1 July heating degree days 6198 6639  
Cooling Degree Days 0 0  
Month to date cooling degree days 0 0  
Year to date cooling degree days 0 0  
Moisture  
Dew Point 24 °F    
Average Humidity 92    
Maximum Humidity 100    
Minimum Humidity 84    
Precipitation  
Precipitation 0.48 in 0.08 in 0.48 in (2013)
Month to date precipitation 0.70 1.41  
Year to date precipitation 2.94 5.90  
Sea Level Pressure  
Sea Level Pressure 29.87 in    
Wind  
Wind Speed 5 mph (SSE)    
Max Wind Speed 15 mph    
Max Gust Speed 18 mph    
Visibility 2 miles    
Events Fog , Snow    
T = Trace of Precipitation, MM = Missing Value Source: NWS Daily Summary

Daily Weather History Graph

Daily Weather History Graph

Search for Another Location

Airport:

Trip Planner

Search our weather history database for the weather conditions in past years. The results will help you decide how hot, cold, wet, or windy it might be!

Date:

Astronomy

Mar. 19, 2013 Rise Set
Actual Time 6:54 AM EDT 7:01 PM EDT
Civil Twilight 6:26 AM EDT 7:30 PM EDT
Nautical Twilight 5:52 AM EDT 8:04 PM EDT
Astronomical Twilight 5:17 AM EDT 8:39 PM EDT
Moon 11:30 AM EDT (3/19) 1:58 AM EDT (3/19)
Length of Visible Light 13h 04m
Length of Day
12h 06m
Waxing Crescent, 49% of the Moon is Illuminated
Mar 19
Waxing Crescent
Mar 19
First Quarter
Mar 27
Full
Apr 3
Last Quarter
Apr 10
New

Hourly Weather History & Observations

Time (EDT) Temp. Windchill Dew Point Humidity Pressure Visibility Wind Dir Wind Speed Gust Speed Precip Events Conditions
12:21 AM 24.8 °F 13.4 °F 17.6 °F 74% 30.13 in 2.0 mi South 12.7 mph 23.0 mph 0.00 in Snow Light Snow
12:30 AM 24.8 °F 14.6 °F 19.4 °F 80% 30.12 in 1.5 mi South 10.4 mph - 0.00 in Snow Light Snow
12:51 AM 24.1 °F 13.1 °F 21.0 °F 88% 30.18 in 2.5 mi South 11.5 mph - 0.00 in Snow Light Snow
12:57 AM 24.8 °F 16.1 °F 19.4 °F 80% 30.12 in 3.0 mi South 8.1 mph - 0.00 in Snow Light Snow
1:04 AM 24.8 °F 14.6 °F 21.2 °F 86% 30.11 in 2.5 mi South 10.4 mph - 0.00 in Snow Light Snow
1:09 AM 24.8 °F 16.1 °F 21.2 °F 86% 30.11 in 1.8 mi SSE 8.1 mph - 0.00 in Snow Light Snow
1:19 AM 24.8 °F 14.6 °F 21.2 °F 86% 30.10 in 2.0 mi SSE 10.4 mph - 0.00 in Snow Light Snow
1:51 AM 24.1 °F 17.0 °F 21.0 °F 88% 30.14 in 2.5 mi SSE 5.8 mph - 0.01 in Snow Light Snow
2:00 AM 24.8 °F 19.1 °F 21.2 °F 86% 30.09 in 3.0 mi SE 4.6 mph - 0.00 in Snow Light Snow
2:20 AM 24.8 °F 17.9 °F 21.2 °F 86% 30.07 in 2.0 mi SE 5.8 mph - 0.00 in Snow Light Snow
2:28 AM 24.8 °F 16.1 °F 21.2 °F 86% 30.07 in 1.2 mi SSE 8.1 mph - 0.01 in Snow Light Snow
2:51 AM 24.1 °F 18.2 °F 21.0 °F 88% 30.11 in 1.0 mi SSE 4.6 mph - 0.02 in Snow Light Snow
3:04 AM 24.8 °F 17.9 °F 21.2 °F 86% 30.05 in 0.8 mi SSE 5.8 mph - 0.01 in Snow Light Snow
3:31 AM 24.8 °F 17.9 °F 21.2 °F 86% 30.04 in 1.0 mi SSE 5.8 mph - 0.02 in Snow Light Snow
3:51 AM 24.1 °F 17.0 °F 21.9 °F 91% 30.09 in 0.8 mi South 5.8 mph - 0.04 in Snow Light Snow
4:35 AM 24.8 °F 19.1 °F 23.0 °F 93% 30.02 in 0.5 mi SSE 4.6 mph - 0.04 in Fog , Snow Snow
4:51 AM 24.1 °F 19.7 °F 23.0 °F 96% 30.06 in 0.5 mi SSE 3.5 mph - 0.06 in Fog , Snow Snow
5:51 AM 24.1 °F 16.0 °F 21.9 °F 91% 30.04 in 0.8 mi South 6.9 mph - 0.09 in Snow Light Snow
5:57 AM 24.8 °F 17.9 °F 23.0 °F 93% 29.99 in 1.2 mi South 5.8 mph - 0.00 in Snow Light Snow
6:10 AM 24.8 °F 16.9 °F 23.0 °F 93% 29.99 in 1.0 mi South 6.9 mph - 0.00 in Snow Light Snow
6:27 AM 24.8 °F 16.9 °F 23.0 °F 93% 29.98 in 1.2 mi SSE 6.9 mph - 0.01 in Snow Light Snow
6:40 AM 24.8 °F 17.9 °F 23.0 °F 93% 29.98 in 1.0 mi SSE 5.8 mph - 0.01 in Snow Light Snow
6:51 AM 25.0 °F 17.1 °F 23.0 °F 92% 30.02 in 1.2 mi SSE 6.9 mph - 0.02 in Snow Light Snow
7:19 AM 24.8 °F 16.1 °F 23.0 °F 93% 29.96 in 1.0 mi SSE 8.1 mph - 0.00 in Snow Light Snow
7:27 AM 24.8 °F 17.9 °F 23.0 °F 93% 29.96 in 0.8 mi SSE 5.8 mph - 0.01 in Snow Light Snow
7:47 AM 24.8 °F 17.9 °F 23.0 °F 93% 29.96 in 1.2 mi South 5.8 mph - 0.01 in Snow Light Snow
7:51 AM 25.0 °F 17.1 °F 23.0 °F 92% 30.01 in 1.5 mi South 6.9 mph - 0.01 in Snow Light Snow
8:16 AM 26.6 °F 18.2 °F 23.0 °F 86% 29.94 in 2.5 mi SSE 8.1 mph - 0.00 in Snow Light Snow
8:34 AM 26.6 °F 18.2 °F 23.0 °F 86% 29.94 in 3.0 mi South 8.1 mph - 0.00 in   Overcast
8:51 AM 26.1 °F 16.8 °F 23.0 °F 88% 29.98 in 2.5 mi SSE 9.2 mph - 0.00 in   Overcast
9:12 AM 26.6 °F 18.2 °F 23.0 °F 86% 29.93 in 1.8 mi South 8.1 mph - 0.00 in Snow Light Snow
9:49 AM 26.6 °F 19.1 °F 24.8 °F 93% 29.91 in 1.2 mi SSE 6.9 mph - 0.00 in Snow Light Snow
9:51 AM 26.1 °F 19.4 °F 24.1 °F 92% 29.96 in 1.5 mi South 5.8 mph - 0.00 in Snow Light Snow
10:13 AM 26.6 °F 17.5 °F 24.8 °F 93% 29.90 in 1.0 mi South 9.2 mph - 0.01 in Snow Light Snow
10:48 AM 26.6 °F 17.5 °F 24.8 °F 93% 29.89 in 0.5 mi SSE 9.2 mph - 0.01 in Fog , Snow Snow
10:51 AM 27.0 °F 17.3 °F 24.1 °F 89% 29.94 in 0.5 mi SSE 10.4 mph - 0.02 in Fog , Snow Snow
11:27 AM 26.6 °F 18.2 °F 24.8 °F 93% 29.87 in 1.2 mi South 8.1 mph - 0.01 in Snow Light Snow
11:36 AM 26.6 °F 17.5 °F 24.8 °F 93% 29.88 in 1.0 mi South 9.2 mph - 0.01 in Snow Light Snow
11:48 AM 26.6 °F 18.2 °F 24.8 °F 93% 29.87 in 0.5 mi South 8.1 mph - 0.01 in Fog , Snow Snow
11:51 AM 27.0 °F 18.0 °F 24.1 °F 89% 29.92 in 0.5 mi South 9.2 mph - 0.01 in Fog , Snow Snow
12:00 PM 26.6 °F 20.0 °F 24.8 °F 93% 29.87 in 0.5 mi South 5.8 mph - 0.01 in Fog , Snow Snow
12:40 PM 28.4 °F 18.0 °F 24.8 °F 86% 29.86 in 0.8 mi SSE 12.7 mph - 0.02 in Snow Light Snow
12:51 PM 28.0 °F 17.5 °F 25.0 °F 88% 29.91 in 0.5 mi South 12.7 mph - 0.02 in Fog , Snow Snow
1:51 PM 27.0 °F 18.7 °F 25.0 °F 92% 29.88 in 0.2 mi SE 8.1 mph - 0.02 in Fog , Snow Heavy Snow
2:29 PM 26.6 °F 20.0 °F 24.8 °F 93% 29.78 in 0.5 mi SE 5.8 mph - 0.03 in Fog , Snow Snow
2:43 PM 26.6 °F 19.1 °F 24.8 °F 93% 29.79 in 0.5 mi SSE 6.9 mph - 0.04 in Fog , Snow Snow
2:51 PM 27.0 °F 19.5 °F 25.0 °F 92% 29.85 in 0.5 mi South 6.9 mph - 0.04 in Fog , Snow Snow
3:00 PM 26.6 °F 20.0 °F 24.8 °F 93% 29.79 in 1.0 mi South 5.8 mph - 0.00 in Snow Light Snow
3:04 PM 26.6 °F 18.2 °F 24.8 °F 93% 29.79 in 1.5 mi South 8.1 mph - 0.00 in Snow Light Snow
3:06 PM 26.6 °F 19.1 °F 24.8 °F 93% 29.79 in 1.2 mi South 6.9 mph - 0.00 in Snow Light Snow
3:10 PM 26.6 °F 22.6 °F 24.8 °F 93% 29.78 in 0.8 mi SE 3.5 mph - 0.00 in Snow Light Snow
3:36 PM 26.6 °F 21.2 °F 24.8 °F 93% 29.77 in 1.0 mi SSE 4.6 mph - 0.01 in Snow Light Snow
3:41 PM 26.6 °F 18.2 °F 24.8 °F 93% 29.76 in 1.5 mi SSE 8.1 mph - 0.01 in Snow Light Snow
3:51 PM 27.0 °F 19.5 °F 24.1 °F 89% 29.82 in 2.5 mi South 6.9 mph - 0.01 in Snow Light Snow
3:56 PM 26.6 °F 20.0 °F 24.8 °F 93% 29.76 in 3.0 mi SSE 5.8 mph - 0.00 in Snow Light Snow
4:03 PM 26.6 °F 19.1 °F 24.8 °F 93% 29.76 in 1.8 mi SSE 6.9 mph - 0.00 in Snow Light Snow
4:07 PM 26.6 °F 20.0 °F 24.8 °F 93% 29.75 in 1.2 mi SSE 5.8 mph - 0.00 in Snow Light Snow
4:15 PM 28.4 °F 23.3 °F 24.8 °F 86% 29.75 in 0.8 mi SSE 4.6 mph - 0.01 in Snow Light Snow
4:29 PM 28.4 °F 24.6 °F 24.8 °F 86% 29.75 in 1.2 mi SSE 3.5 mph - 0.01 in Snow Light Snow
4:34 PM 26.6 °F 22.6 °F 24.8 °F 93% 29.75 in 1.8 mi SSE 3.5 mph - 0.01 in Snow Light Snow
4:39 PM 26.6 °F 22.6 °F 24.8 °F 93% 29.74 in 3.0 mi SSE 3.5 mph - 0.01 in Snow Light Snow
4:51 PM 27.0 °F - 25.0 °F 92% 29.79 in 4.0 mi Calm Calm - 0.01 in   Overcast
5:11 PM 28.4 °F - 26.6 °F 93% 29.73 in 1.8 mi Calm Calm - 0.00 in Snow Light Snow
5:18 PM 26.6 °F - 26.6 °F 100% 29.74 in 1.0 mi Calm Calm - 0.00 in Snow Light Snow
5:28 PM 26.6 °F - 26.6 °F 100% 29.73 in 1.0 mi Calm Calm - 0.01 in Snow Light Snow
5:36 PM 26.6 °F - 24.8 °F 93% 29.73 in 1.5 mi Calm Calm - 0.01 in Snow Light Snow
5:51 PM 28.0 °F 22.8 °F 24.1 °F 85% 29.79 in 2.5 mi SSE 4.6 mph - 0.01 in Snow Light Snow
5:57 PM 28.4 °F 24.6 °F 24.8 °F 86% 29.73 in 1.8 mi South 3.5 mph - 0.00 in Snow Light Snow
6:25 PM 28.4 °F - 24.8 °F 86% 29.74 in 1.2 mi Calm Calm - 0.01 in Snow Light Snow
6:29 PM 28.4 °F - 26.6 °F 93% 29.74 in 0.8 mi Calm Calm - 0.01 in Snow Light Snow
6:40 PM 28.4 °F - 26.6 °F 93% 29.74 in 1.5 mi Calm Calm - 0.02 in Snow Light Snow
6:44 PM 28.4 °F - 26.6 °F 93% 29.74 in 2.5 mi Calm Calm - 0.02 in Snow Light Snow
6:51 PM 27.0 °F - 26.1 °F 96% 29.79 in 4.0 mi Calm Calm - 0.02 in Snow Light Snow
7:06 PM 26.6 °F - 26.6 °F 100% 29.73 in 2.5 mi Calm Calm - 0.00 in Snow Light Snow
7:14 PM 26.6 °F - 26.6 °F 100% 29.73 in 2.0 mi Calm Calm - 0.00 in Snow Light Snow
7:17 PM 26.6 °F - 26.6 °F 100% 29.73 in 1.8 mi Calm Calm - 0.00 in Snow Light Snow
7:27 PM 26.6 °F - 26.6 °F 100% 29.73 in 2.0 mi Calm Calm - 0.00 in Snow Light Snow
7:51 PM 27.0 °F - 24.1 °F 89% 29.79 in 1.5 mi Calm Calm - 0.01 in Snow Light Snow
8:00 PM 26.6 °F - 24.8 °F 93% 29.73 in 1.2 mi Calm Calm - 0.00 in Snow Light Snow
8:10 PM 26.6 °F - 24.8 °F 93% 29.73 in 2.0 mi Calm Calm - 0.00 in Snow Light Snow
8:24 PM 26.6 °F - 24.8 °F 93% 29.73 in 1.5 mi Calm Calm - 0.01 in Snow Light Snow
8:51 PM 26.1 °F - 25.0 °F 96% 29.79 in 1.2 mi Calm Calm - 0.01 in Snow Light Snow
9:01 PM 26.6 °F - 24.8 °F 93% 29.74 in 1.0 mi Calm Calm - 0.01 in Snow Light Snow
9:17 PM 26.6 °F - 24.8 °F 93% 29.74 in 1.2 mi Calm Calm - N/A Snow Light Snow
9:37 PM 26.6 °F - 24.8 °F 93% 29.74 in 1.5 mi Calm Calm - 0.02 in Snow Light Snow
9:51 PM 25.0 °F 20.7 °F 24.1 °F 96% 29.80 in 1.5 mi SSW 3.5 mph - 0.02 in Snow Light Snow
9:55 PM 26.6 °F - 24.8 °F 93% 29.74 in 1.2 mi Calm Calm - 0.00 in Snow Light Snow
10:14 PM 24.8 °F 19.1 °F 23.0 °F 93% 29.74 in 1.5 mi SSW 4.6 mph - 0.01 in Snow Light Snow
10:27 PM 24.8 °F 20.5 °F 23.0 °F 93% 29.74 in 1.2 mi SSW 3.5 mph - 0.01 in Snow Light Snow
10:49 PM 24.8 °F - 24.8 °F 100% 29.73 in 1.5 mi Calm Calm - 0.02 in Snow Light Snow
10:51 PM 25.0 °F - 24.1 °F 96% 29.78 in 1.5 mi Calm Calm - 0.02 in Snow Light Snow
11:06 PM 24.8 °F - 23.0 °F 93% 29.73 in 2.0 mi Calm Calm - 0.00 in Snow Light Snow
11:35 PM 24.8 °F - 23.0 °F 93% 29.72 in 1.5 mi Calm Calm - 0.01 in Snow Light Snow
11:51 PM 25.0 °F - 23.0 °F 92% 29.77 in 1.5 mi Calm Calm - 0.01 in Snow Light Snow